Location: Jablonec nad Nisou
(50.7170°N, 15.1830°E)
Time: 01:43:08
(UTC+02:00)

ISS - Pass Details

Date: 02 April 2019
Orbit: 408 x 410 km, 51.6° (Epoch: 26 April)

Event Time Altitude Azimuth Distance (km) Brightness Sun altitude
Rises 20:54:59 0° 285° (WNW) 2,339 1.9 -13.2°
Reaches altitude 10° 20:57:05 10° 282° (WNW) 1,475 0.3 -13.5°
Maximum altitude 21:00:22 65° 200° (SSW) 453 -3.7 -14.0°
Enters shadow 21:01:49 30° 127° (SE) 770 -3.0 -14.2°
